Home   Weather   Portsmouth   Past weeks

Flag for USA Past Weather in Portsmouth, Virginia, USA — Yesterday and Last 2 Weeks

Now
96 °F

Scattered clouds.


Feels Like: 108 °F
Forecast: 79 / 96 °F
Wind: 12 mph from West

Location: Norfolk Naval Air Station

Current Time: Jul 22, 2017 at 4:54:45 pm

Latest Report: Jul 22, 2017 at 3:59 pm


Visibility: 7 mi

Pressure: 29.84 "Hg

Humidity: 51%

Dew Point: 75 °F

Location of PortsmouthLocation

Past Weather in Portsmouth — Graph

°F

Portsmouth Temperature Yesterday

Maximum temperature yesterday: 94 °F (at 1:59 pm)
Minimum temperature yesterday: 79 °F (at 4:59 am)
Average temperature yesterday: 86 °F

High & Low Weather Summary for the Past Weeks

 TemperatureHumidityPressure
High98 °F (Jul 14, 3:59 pm)91% (Jul 9, 2:59 am)30.13 "Hg (Jul 9, 2:59 am)
Low73 °F (Jul 9, 5:59 am)38% (Jul 10, 1:59 pm)29.84 "Hg (Jul 8, 5:59 pm)
Average83 °F70%30.01 "Hg
* Reported Jul 7 3:30 pm — Jul 22 3:59 pm, Portsmouth. Weather by CustomWeather, © 2017

Note: Actual official high and low records may vary slightly from our data, if they occured in-between our weather recording intervals... More about our weather records

Advertising

Portsmouth Weather History for the Previous 24 Hours

Scroll right to see more
 ConditionsComfort  
Time TempWeatherWind HumidityBarometerVisibility
3:59 pm
Sat, Jul 22
96 °FScattered clouds.12 mph51%29.84 "Hg7 mi
2:59 pm96 °FScattered clouds.14 mph49%29.86 "Hg8 mi
1:59 pm94 °FScattered clouds.12 mph51%29.89 "Hg8 mi
12:59 pm93 °FScattered clouds.12 mph54%29.90 "Hg8 mi
11:59 am91 °FScattered clouds.7 mph57%29.92 "Hg8 mi
10:59 am88 °FScattered clouds.10 mph63%29.93 "Hg7 mi
9:59 am85 °FScattered clouds.9 mph70%29.94 "Hg6 mi
8:59 am84 °FPassing clouds.10 mph72%29.94 "Hg7 mi
7:59 am81 °FScattered clouds.9 mph77%29.94 "Hg7 mi
6:59 am79 °FHaze.8 mph79%29.91 "Hg6 mi
5:59 am79 °FPassing clouds.7 mph79%29.91 "Hg8 mi
4:59 am79 °FPassing clouds.6 mph79%29.91 "Hg8 mi
3:59 am80 °FPassing clouds.7 mph76%29.91 "Hg8 mi
2:59 am81 °FPassing clouds.9 mph74%29.91 "Hg8 mi
1:59 am82 °FPassing clouds.9 mph72%29.92 "Hg8 mi
12:59 am83 °FPassing clouds.8 mph72%29.94 "Hg8 mi
11:59 pm
Fri, Jul 21
84 °FPassing clouds.9 mph70%29.94 "Hg9 mi
10:59 pm85 °FPassing clouds.12 mph70%29.95 "Hg9 mi
9:59 pm87 °FPassing clouds.8 mph65%29.93 "Hg8 mi
8:59 pm88 °FPassing clouds.7 mph67%29.92 "Hg8 mi
7:59 pm89 °FPartly sunny.6 mph63%29.91 "Hg7 mi
6:59 pm91 °FPartly sunny.5 mph61%29.91 "Hg6 mi
5:59 pm92 °FScattered clouds.6 mph56%29.92 "Hg6 mi
4:59 pm92 °FBroken clouds.7 mph58%29.93 "Hg6 mi
Weather by CustomWeather, © 2017

See weather overviewHow to use our weather pages